DW7210 Weather Reports


Display with metric or nautical units.
time (UTC)temp
F
wind
direction
speed
MPH
gust
MPH
rain 1hr
in
rain 24hr
in
rain mn
in
humidity
%
barometer
mb
20190218121406 39 37 0.0 1.0 0.00 0.00 0.00 40 1014.7
20190218120406 39 31 0.0 1.0 0.00 0.00 0.00 39 1014.7
20190218115406 39 33 0.0 2.0 0.00 0.00 0.00 39 1014.6
20190218114406 39 16 0.0 2.0 0.00 0.00 0.00 40 1014.6
20190218113406 39 5 0.0 0.0 0.00 0.00 0.00 40 1014.5
20190218112406 39 13 0.0 3.0 0.00 0.00 0.00 41 1014.4
20190218111406 39 19 1.0 3.0 0.00 0.00 0.00 41 1014.5
20190218110406 39 15 1.0 3.0 0.00 0.00 0.00 41 1014.4
20190218105406 39 350 0.0 2.0 0.00 0.00 0.00 41 1014.4
20190218104406 39 19 1.0 3.0 0.00 0.00 0.00 41 1014.4
20190218103406 39 9 0.0 3.0 0.00 0.00 0.00 41 1014.4
20190218102406 39 349 0.0 1.0 0.00 0.00 0.00 41 1014.3
20190218101406 39 7 0.0 0.0 0.00 0.00 0.00 40 1014.4
20190218100406 39 25 1.0 5.0 0.00 0.00 0.00 40 1014.4
20190218095406 39 29 0.0 3.0 0.00 0.00 0.00 40 1014.4
20190218094406 40 17 2.0 5.0 0.00 0.00 0.00 40 1014.5
20190218093406 40 358 0.0 5.0 0.00 0.00 0.00 40 1014.6
20190218092406 40 21 2.0 5.0 0.00 0.00 0.00 40 1014.6
20190218091406 40 17 1.0 5.0 0.00 0.00 0.00 41 1014.7
20190218090406 40 19 2.0 5.0 0.00 0.00 0.00 41 1014.8
20190218085406 40 29 2.0 6.0 0.00 0.00 0.00 41 1014.8
20190218084406 39 16 0.0 3.0 0.00 0.00 0.00 41 1015.0
20190218083404 39 356 0.0 3.0 0.00 0.00 0.00 41 1014.9
20190218082406 40 19 1.0 3.0 0.00 0.00 0.00 40 1015.0
20190218081406 40 356 1.0 5.0 0.00 0.00 0.00 40 1015.1
20190218080406 40 12 2.0 3.0 0.00 0.00 0.00 40 1015.1
20190218075406 39 10 0.0 3.0 0.00 0.00 0.00 40 1015.0
20190218074406 40 351 0.0 3.0 0.00 0.00 0.00 39 1015.0
20190218073406 40 11 1.0 3.0 0.00 0.00 0.00 37 1015.0
20190218072404 40 20 0.0 3.0 0.00 0.00 0.00 37 1015.0
20190218071406 41 350 1.0 3.0 0.00 0.00 0.00 36 1015.0
20190218070406 40 13 0.0 2.0 0.00 0.00 0.00 35 1015.1
20190218065404 41 0 0.0 3.0 0.00 0.00 0.00 35 1014.9
20190218064404 41 3 0.0 3.0 0.00 0.00 0.00 34 1015.0
20190218063404 41 24 0.0 6.0 0.00 0.00 0.00 33 1014.9
20190218062404 41 18 0.0 3.0 0.00 0.00 0.00 33 1014.8
20190218061404 42 0 1.0 3.0 0.00 0.00 0.00 32 1014.7
20190218060404 42 7 1.0 6.0 0.00 0.00 0.00 31 1014.7
20190218055404 42 352 2.0 5.0 0.00 0.00 0.00 30 1014.7
20190218054404 42 357 1.0 6.0 0.00 0.00 0.00 29 1014.6
20190218053404 42 0 1.0 3.0 0.00 0.00 0.00 29 1014.5
20190218052404 42 9 1.0 5.0 0.00 0.00 0.00 28 1014.4
20190218051404 43 347 1.0 6.0 0.00 0.00 0.00 28 1014.4
20190218050404 43 6 1.0 3.0 0.00 0.00 0.00 27 1014.3
20190218045404 43 6 1.0 3.0 0.00 0.00 0.00 26 1014.1
20190218044404 44 19 2.0 3.0 0.00 0.00 0.00 25 1013.8
20190218043404 44 3 1.0 5.0 0.00 0.00 0.00 25 1013.8
20190218042404 44 353 1.0 3.0 0.00 0.00 0.00 24 1013.6
20190218041404 45 7 2.0 6.0 0.00 0.00 0.00 23 1013.5
20190218040404 45 21 0.0 3.0 0.00 0.00 0.00 21 1013.3
20190218035404 45 17 0.0 3.0 0.00 0.00 0.00 20 1012.9
20190218034404 46 351 0.0 5.0 0.00 0.00 0.00 19 1012.8
20190218033404 47 327 2.0 6.0 0.00 0.00 0.00 18 1012.7
20190218032404 47 310 1.0 6.0 0.00 0.00 0.00 18 1012.5
20190218031404 47 299 2.0 6.0 0.00 0.00 0.00 18 1012.4
20190218030404 47 286 0.0 5.0 0.00 0.00 0.00 18 1012.3
20190218025404 48 298 1.0 6.0 0.00 0.00 0.00 19 1012.2
20190218024404 48 313 0.0 3.0 0.00 0.00 0.00 19 1012.1
20190218023404 48 335 2.0 7.0 0.00 0.00 0.00 19 1011.9
20190218022404 48 332 2.0 7.0 0.00 0.00 0.00 20 1011.8
20190218021404 49 327 2.0 9.0 0.00 0.00 0.00 20 1011.7
20190218020404 49 306 2.0 7.0 0.00 0.00 0.00 19 1011.6
20190218015404 49 311 2.0 7.0 0.00 0.00 0.00 19 1011.3
20190218014406 50 300 1.0 3.0 0.00 0.00 0.00 19 1011.2
20190218013406 50 306 2.0 6.0 0.00 0.00 0.00 19 1011.1
20190218012406 51 298 3.0 9.0 0.00 0.00 0.00 18 1010.8
20190218011406 51 308 3.0 9.0 0.00 0.00 0.00 18 1010.5
20190218010406 51 300 3.0 10.0 0.00 0.00 0.00 18 1010.5
20190218005406 52 297 5.0 12.0 0.00 0.00 0.00 17 1010.2
20190218004406 52 308 5.0 10.0 0.00 0.00 0.00 17 1010.0
20190218003406 53 298 5.0 12.0 0.00 0.00 0.00 16 1010.0
20190218002406 53 293 6.0 14.0 0.00 0.00 0.00 17 1009.9
20190218001406 54 292 6.0 16.0 0.00 0.00 0.00 16 1009.9
20190218000406 54 295 9.0 20.0 0.00 0.00 0.00 16 1009.9
20190217235406 55 302 7.0 15.0 0.00 0.00 0.00 15 1009.7
20190217234406 55 295 3.0 15.0 0.00 0.00 0.00 16 1009.7
20190217233406 55 262 6.0 15.0 0.00 0.00 0.00 15 1009.8
20190217232406 55 289 7.0 12.0 0.00 0.00 0.00 16 1009.6
20190217231406 55 270 5.0 12.0 0.00 0.00 0.00 17 1009.7
20190217230406 56 229 5.0 12.0 0.00 0.00 0.00 17 1009.5
20190217225406 55 266 5.0 12.0 0.00 0.00 0.00 18 1009.6
20190217224406 55 285 8.0 17.0 0.00 0.00 0.00 18 1009.7
20190217223406 55 282 3.0 10.0 0.00 0.00 0.00 19 1009.7
20190217222404 54 264 5.0 15.0 0.00 0.00 0.00 20 1009.9
20190217221404 54 278 2.0 12.0 0.00 0.00 0.00 21 1009.8
20190217220404 54 295 7.0 15.0 0.00 0.00 0.00 21 1010.0
20190217215404 53 288 6.0 17.0 0.00 0.00 0.00 21 1010.1
20190217214404 53 297 6.0 17.0 0.00 0.00 0.00 21 1010.2
20190217213406 53 290 6.0 15.0 0.00 0.00 0.00 21 1010.3
20190217212406 53 269 3.0 17.0 0.00 0.00 0.00 22 1010.3
20190217211406 53 282 3.0 12.0 0.00 0.00 0.00 21 1010.3
20190217210406 53 289 3.0 12.0 0.00 0.00 0.00 22 1010.3
20190217205404 52 273 5.0 17.0 0.00 0.00 0.00 23 1010.6
20190217204406 53 286 7.0 14.0 0.00 0.00 0.00 23 1010.7
20190217203406 53 268 4.0 14.0 0.00 0.00 0.00 23 1010.9
20190217202406 53 249 3.0 10.0 0.00 0.00 0.00 25 1011.0
20190217201406 52 253 3.0 16.0 0.00 0.00 0.00 26 1011.2
20190217200406 52 250 5.0 12.0 0.00 0.00 0.00 23 1011.4
20190217195406 52 249 6.0 14.0 0.00 0.00 0.00 27 1011.4
20190217194406 51 288 7.0 12.0 0.00 0.00 0.00 29 1011.6
20190217193406 51 263 5.0 14.0 0.00 0.00 0.00 29 1011.6
20190217192406 52 283 7.0 20.0 0.00 0.00 0.00 28 1011.8
20190217191406 51 267 5.0 15.0 0.00 0.00 0.00 30 1011.9
20190217190405 51 264 3.0 12.0 0.00 0.00 0.00 32 1011.8
20190217185405 51 224 4.0 12.0 0.00 0.00 0.00 33 1012.0
20190217184406 48 258 2.0 12.0 0.00 0.00 0.00 37 1012.2
20190217183406 48 286 3.0 10.0 0.00 0.00 0.00 37 1012.3
20190217182406 48 301 5.0 12.0 0.00 0.00 0.00 37 1012.4
20190217181406 48 276 3.0 10.0 0.00 0.00 0.00 37 1012.5
20190217180405 47 280 4.0 12.0 0.00 0.00 0.00 39 1012.7
20190217175406 46 306 4.0 12.0 0.00 0.00 0.00 39 1012.7
20190217174406 46 281 6.0 12.0 0.00 0.00 0.00 39 1012.8
20190217173406 46 285 5.0 10.0 0.00 0.00 0.00 40 1012.8
20190217172405 46 278 3.0 12.0 0.00 0.00 0.00 40 1012.7
20190217171406 45 290 3.0 14.0 0.00 0.00 0.00 40 1012.8
20190217170405 46 273 5.0 9.0 0.00 0.00 0.00 40 1012.7
20190217165405 45 304 3.0 9.0 0.00 0.00 0.00 41 1012.7
20190217164405 44 285 5.0 12.0 0.00 0.00 0.00 41 1012.8
20190217163406 44 282 3.0 7.0 0.00 0.00 0.00 41 1012.9
20190217162406 44 282 1.0 3.0 0.00 0.00 0.00 42 1012.8
20190217161406 44 290 2.0 5.0 0.00 0.00 0.00 41 1012.9
20190217160406 43 274 2.0 3.0 0.00 0.00 0.00 44 1012.8
20190217155406 42 327 0.0 3.0 0.00 0.00 0.00 44 1012.8
20190217154405 42 279 1.0 3.0 0.00 0.00 0.00 45 1012.9
20190217153405 41 288 0.0 2.0 0.00 0.00 0.00 46 1012.8
20190217152406 40 327 0.0 2.0 0.00 0.00 0.00 48 1012.7
20190217151405 39 279 0.0 1.0 0.00 0.00 0.00 48 1012.7
20190217150405 39 14 0.0 0.0 0.00 0.00 0.00 49 1012.6
20190217145405 38 340 0.0 0.0 0.00 0.00 0.00 50 1012.6
20190217144406 38 355 0.0 0.0 0.00 0.00 0.00 52 1012.5
20190217143405 35 107 0.0 0.0 0.00 0.00 0.00 56 1012.2
20190217142405 35 107 0.0 0.0 0.00 0.00 0.00 56 1012.0
20190217141406 35 42 0.0 0.0 0.00 0.00 0.00 56 1012.0
20190217140405 35 39 0.0 2.0 0.00 0.00 0.00 56 1011.8
20190217135405 35 2 0.0 2.0 0.00 0.00 0.00 56 1011.5
20190217134405 34 20 0.0 0.0 0.00 0.00 0.00 57 1011.3
20190217133406 34 345 0.0 0.0 0.00 0.00 0.00 59 1011.3
20190217132405 34 346 0.0 0.0 0.00 0.00 0.00 57 1011.0
20190217131405 35 347 0.0 0.0 0.00 0.00 0.00 54 1010.7
20190217130406 36 347 0.0 0.0 0.00 0.00 0.00 52 1010.6
20190217125405 37 347 0.0 0.0 0.00 0.00 0.00 51 1010.7
20190217124406 37 347 0.0 0.0 0.00 0.00 0.00 51 1010.5
20190217123406 37 347 0.0 0.0 0.00 0.00 0.00 50 1010.5
20190217122406 38 356 0.0 0.0 0.00 0.00 0.00 49 1010.3